Regional Weather Roundup
Issued by NWS

Home | Current Version | Previous Version | Text Only | Print | Product List | Glossary On
Versions: 1 2 3 4 5 6 7 8 9 10 11 12 13 14 15 16 17 18 19 20 21 22 23 24 25 26 27 28 29 30 31 32 33 34 35 36 37 38 39 40 41 42 43 44 45 46 47 48 49 50
000
ASUS44 KLIX 071311
RWRLA
LOUISIANA WEATHER ROUNDUP
NATIONAL WEATHER SERVICE NEW ORLEANS LA
800 AM CDT TUE JUL 07 2015

NOTE: "FAIR" INDICATES FEW OR NO CLOUDS BELOW 12,000 FEET WITH NO
      SIGNIFICANT WEATHER AND/OR OBSTRUCTIONS TO VISIBILITY.
      SKY/WX - SKY CONDITION AND SIGNIFICANT WEATHER.
      TMP - AIR TEMPERATURE.    DP   - DEWPOINT TEMPERATURE.
      RH  - RELATIVE HUMIDITY.  PRES - PRESSURE.
      HX  - HEAT INDEX.         WCI  - WIND CHILL INDEX.

*  THESE STATIONS ARE NOT NWS OR FAA STATIONS AND ARE NOT UNDER
   NWS QUALITY CONTROL.

LAZ040-048-061>063-065-066-069-071400-
SOUTHEAST LOUISIANA

CITY           SKY/WX    TMP DP  RH WIND       PRES   REMARKS
N.O. AUDUBON   NOT AVBL
N.O. INTL ARPT MOSUNNY   83  76  79 SE7       30.12R
N.O. LAKEFRONT SUNNY     86  76  71 S9        30.13R HX  96
N.O. DOWNTOWN* FAIR      86  75  70 S5        30.14R HX  95
RESERVE*       FAIR      83  77  81 SE8       30.12R
SLIDELL        MOSUNNY   82  80  94 CALM      30.13R
BATON ROUGE    SUNNY     80  77  90 E3        30.11R
BOOTHVILLE     SUNNY     85  78  80 SE6       30.14S HX  96
BELLE CHASSE   MOSUNNY   83  76  79 S6        30.12R
BOGALUSA*        N/A     80  76  89 SE3       30.15R
GALLIANO*      SUNNY     85  76  74 S6        30.13R HX  95
NEW ROADS*     FAIR     N/A N/A N/A SE6       30.11R
GONZALES*      FAIR      82  80  93 S5        30.10R
HAMMOND*       SUNNY     82  77  83 SE3       30.13S
HOUMA*         MOSUNNY   84  79  84 SE6       30.11R HX  96
PORT FOURCHON* MOSUNNY   86  75  70 S9G15     30.13R HX  95

$$

LAZ041-044-053-054-071400-
SOUTHWEST LOUISIANA

CITY           SKY/WX    TMP DP  RH WIND       PRES   REMARKS
LAKE CHARLES   MOSUNNY   81  78  91 SE6       30.07R
LAFAYETTE      PTSUNNY   82  78  88 CALM      30.10R
PATTERSON      SUNNY     82  75  78 S6        30.11R
SALT POINT       N/A     85  78  80 CALM      30.08R HX  96
NEW IBERIA     NOT AVBL
CHENAULT AIRPK SUNNY     81  77  89 SE7       30.08R

$$

LAZ027-028-071400-
CENTRAL LOUISIANA

CITY           SKY/WX    TMP DP  RH WIND       PRES   REMARKS
FORT POLK      MOSUNNY   78  76  94 S8        30.07S
ALEXANDRIA INT MOSUNNY   78  77  96 SE7       30.07R
ALEXANDRIA     MOSUNNY   81  77  88 S3        30.09R

$$

LAZ001-002-071400-
NORTHWEST LOUISIANA

CITY           SKY/WX    TMP DP  RH WIND       PRES   REMARKS
SHREVEPORT     CLOUDY    80  75  84 S10       30.04S
BARKSDALE AFB  PTSUNNY   78  76  93 S8        30.04S
DTN SHREVEPORT PTSUNNY   77  74  90 S8        30.04S

$$

LAZ014-016-071400-
NORTHEAST LOUISIANA

CITY           SKY/WX    TMP DP  RH WIND       PRES   REMARKS
MONROE         PTSUNNY   78  77  96 S7        30.09R
TALLULAH       SUNNY     79  76  90 S8        30.10R

$$



USA.gov is the U.S. government's official web portal to all federal, state and local government web resources and services.